軌道要素
Epoch 2017 Sept. 4.0 TT = JDT 2458000.5
T 2017 Sept. 9.49009 TT MPCW
q 0.2553113 (2000.0) P Q
z -0.7811691 Peri. 241.69749 -0.62901428 +0.69396727
+/-0.0004220 Node 24.59939 +0.51032267 +0.70858562
e 1.1994413 Incl. 122.68444 -0.58643995 -0.12773348
From 122 observations 2017 Oct. 14-Nov. 17, mean residual 0".4.
|